BBC371 VGHS-VNKT

Flight info

Callsign BBC371
Flight time N/A
Altitude 30000
Route IDLOX1D IDLOX G463 RAJ A201 MONDA G463 ROMEO ROMEO3R
Aircraft B77W/H-SDE1E2E3FGHIJ2J3J4J5M1RWXY/LB1D1

Departure

Time 2026-04-25 15:11
Airport Hazrat Shahjalal International Airport (VGHS)

Arrival

Time N/A
Airport Tribhuvan International Airport (VNKT)
Time Latitude Longitude Altitude Speed Heading
2026-04-25 14:40 23.84891 90.40296 41 ft 0 kts 54°
2026-04-25 14:57 23.84878 90.40276 41 ft 4 kts 54°
2026-04-25 14:58 23.84862 90.40254 38 ft 3 kts 49°
2026-04-25 14:58 23.84849 90.40240 37 ft 2 kts 26°
2026-04-25 14:58 23.84839 90.40237 37 ft 2 kts 341°
2026-04-25 14:58 23.84829 90.40242 39 ft 2 kts 327°
2026-04-25 14:59 23.84820 90.40249 40 ft 0 kts 324°
2026-04-25 15:02 23.84824 90.40246 39 ft 3 kts 324°
2026-04-25 15:03 23.84857 90.40220 38 ft 8 kts 324°
2026-04-25 15:03 23.84904 90.40185 41 ft 8 kts 330°
2026-04-25 15:03 23.84961 90.40166 41 ft 9 kts 346°
2026-04-25 15:03 23.85015 90.40135 41 ft 9 kts 324°
2026-04-25 15:04 23.85067 90.40092 41 ft 10 kts 323°
2026-04-25 15:04 23.85124 90.40047 41 ft 10 kts 323°
2026-04-25 15:04 23.85167 90.40000 41 ft 8 kts 288°
2026-04-25 15:04 23.85149 90.39939 41 ft 9 kts 237°
2026-04-25 15:05 23.85116 90.39879 41 ft 9 kts 252°
2026-04-25 15:05 23.85139 90.39814 41 ft 10 kts 312°
2026-04-25 15:05 23.85193 90.39765 41 ft 10 kts 323°
2026-04-25 15:06 23.85307 90.39674 40 ft 11 kts 324°
2026-04-25 15:06 23.85371 90.39624 41 ft 12 kts 324°
2026-04-25 15:06 23.85447 90.39564 41 ft 15 kts 324°
2026-04-25 15:06 23.85537 90.39492 41 ft 17 kts 324°
2026-04-25 15:07 23.85642 90.39409 41 ft 19 kts 324°
2026-04-25 15:07 23.85732 90.39337 41 ft 11 kts 324°
2026-04-25 15:07 23.85767 90.39295 41 ft 7 kts 285°
2026-04-25 15:07 23.85753 90.39247 41 ft 7 kts 233°
2026-04-25 15:08 23.85721 90.39202 40 ft 8 kts 233°
2026-04-25 15:08 23.85686 90.39150 41 ft 9 kts 233°
2026-04-25 15:08 23.85648 90.39093 41 ft 10 kts 234°
2026-04-25 15:08 23.85606 90.39029 41 ft 11 kts 234°
2026-04-25 15:09 23.85560 90.38960 40 ft 12 kts 233°
2026-04-25 15:09 23.85510 90.38899 40 ft 9 kts 213°
2026-04-25 15:09 23.85424 90.38916 40 ft 0 kts 145°
2026-04-25 15:10 23.84824 90.39393 41 ft 134 kts 144°
2026-04-25 15:11 23.83915 90.40133 237 ft 178 kts 142°
2026-04-25 15:11 23.82940 90.40935 1089 ft 174 kts 144°
2026-04-25 15:11 23.81978 90.41715 1937 ft 174 kts 146°
2026-04-25 15:12 23.79723 90.43466 2648 ft 229 kts 146°
2026-04-25 15:12 23.78353 90.44535 3142 ft 249 kts 146°
2026-04-25 15:12 23.76925 90.45658 3901 ft 257 kts 146°
2026-04-25 15:12 23.76433 90.46046 4185 ft 259 kts 146°
2026-04-25 15:13 23.73964 90.48002 5522 ft 272 kts 146°
2026-04-25 15:13 23.70753 90.50427 7045 ft 285 kts 158°
2026-04-25 15:13 23.68815 90.50814 7790 ft 286 kts 188°
2026-04-25 15:14 23.66943 90.50145 8669 ft 284 kts 214°
2026-04-25 15:14 23.65496 90.48701 9503 ft 284 kts 233°
2026-04-25 15:14 23.64263 90.46982 10177 ft 294 kts 234°
2026-04-25 15:14 23.62957 90.45143 10487 ft 321 kts 234°
2026-04-25 15:15 23.61521 90.43135 10705 ft 350 kts 234°
2026-04-25 15:15 23.59964 90.40971 11080 ft 372 kts 233°
2026-04-25 15:15 23.58340 90.38729 11817 ft 382 kts 233°
2026-04-25 15:15 23.56829 90.36353 12576 ft 384 kts 246°
2026-04-25 15:16 23.56200 90.33528 13421 ft 388 kts 269°
2026-04-25 15:16 23.56504 90.30615 14357 ft 388 kts 285°
2026-04-25 15:16 23.59036 90.25445 16147 ft 395 kts 310°
2026-04-25 15:17 23.62702 90.20887 17818 ft 405 kts 310°
2026-04-25 15:17 23.64533 90.18529 18599 ft 409 kts 309°
2026-04-25 15:17 23.66364 90.16132 19360 ft 413 kts 309°
2026-04-25 15:18 23.68180 90.13745 20129 ft 416 kts 309°
2026-04-25 15:18 23.71938 90.08812 21639 ft 424 kts 308°
2026-04-25 15:18 23.73829 90.06331 22375 ft 428 kts 308°
2026-04-25 15:19 23.75745 90.03817 23101 ft 432 kts 308°
2026-04-25 15:19 23.76365 90.03003 23317 ft 433 kts 308°
2026-04-25 15:19 23.79609 89.98741 24379 ft 437 kts 308°
2026-04-25 15:19 23.81553 89.96187 25052 ft 437 kts 307°
2026-04-25 15:20 23.83499 89.93628 25693 ft 439 kts 307°
2026-04-25 15:20 23.85453 89.91056 26306 ft 440 kts 307°
2026-04-25 15:20 23.87407 89.88482 26921 ft 442 kts 306°
2026-04-25 15:20 23.89372 89.85894 27595 ft 442 kts 306°
2026-04-25 15:21 23.91331 89.83314 28275 ft 441 kts 306°
2026-04-25 15:21 23.93280 89.80745 29114 ft 437 kts 305°
2026-04-25 15:21 23.95188 89.78227 29779 ft 434 kts 304°
2026-04-25 15:21 23.97106 89.75692 29809 ft 433 kts 304°
2026-04-25 15:22 24.00940 89.70617 29822 ft 433 kts 304°
2026-04-25 15:22 24.04804 89.65499 29818 ft 434 kts 304°
2026-04-25 15:23 24.08626 89.60434 29817 ft 435 kts 304°
2026-04-25 15:23 24.12272 89.55184 29808 ft 429 kts 294°
2026-04-25 15:24 24.14324 89.49144 29816 ft 424 kts 287°
2026-04-25 15:24 24.15668 89.45068 29817 ft 427 kts 287°
2026-04-25 15:25 24.18429 89.36913 29808 ft 430 kts 288°
2026-04-25 15:25 24.20525 89.30767 29804 ft 431 kts 288°
2026-04-25 15:26 24.22617 89.24625 29800 ft 430 kts 288°
2026-04-25 15:26 24.24701 89.18491 29802 ft 429 kts 288°
2026-04-25 15:27 24.26779 89.12366 29797 ft 429 kts 288°
2026-04-25 15:28 24.29886 89.03185 29794 ft 428 kts 288°
2026-04-25 15:28 24.31955 88.97061 29797 ft 428 kts 288°
2026-04-25 15:29 24.34023 88.90931 29793 ft 429 kts 288°
2026-04-25 15:29 24.36076 88.84838 29788 ft 429 kts 288°
2026-04-25 15:30 24.38161 88.78638 29788 ft 430 kts 288°
2026-04-25 15:30 24.40229 88.72479 29784 ft 431 kts 288°
2026-04-25 15:31 24.42289 88.66335 29784 ft 432 kts 288°
2026-04-25 15:31 24.44433 88.60178 29778 ft 433 kts 291°
2026-04-25 15:32 24.46957 88.54177 29782 ft 433 kts 292°
2026-04-25 15:32 24.49507 88.48179 29780 ft 434 kts 292°
2026-04-25 15:33 24.53309 88.39157 29778 ft 434 kts 292°
2026-04-25 15:33 24.55835 88.33132 29778 ft 435 kts 292°
2026-04-25 15:34 24.58362 88.27093 29776 ft 435 kts 292°
2026-04-25 15:34 24.60054 88.23045 29777 ft 436 kts 292°
2026-04-25 15:35 24.64265 88.12958 29776 ft 438 kts 292°
2026-04-25 15:36 24.68084 88.03791 29780 ft 441 kts 292°
2026-04-25 15:36 24.71054 87.96602 29774 ft 443 kts 292°